Location: *
(46.4833°N, 7.6667°E)
Time: 04:34:08
(UTC+00:00)

CZ-2C R/B - Pass Details

Date: 27 February 2020
Orbit: 641 x 704 km, 98.4° (Epoch: 29 March)

Event Time Altitude Azimuth Distance (km) Brightness Sun altitude
Rises 19:40:38 0° 11° (N) 3,044 7.2 -26.2°
Reaches altitude 10° 19:42:52 10° 9° (N) 2,134 6.4 -26.6°
Maximum altitude 19:47:30 69° 287° (WNW) 740 4.0 -27.3°
Drops below altitude 10° 19:52:11 10° 205° (SSW) 2,151 6.4 -28.1°
Sets 19:54:27 0° 203° (SSW) 3,070 7.2 -28.5°
